Taunton, MA

6:50 AM EDT on August 20, 2017 (GMT -0400)
Taunton Municipal

Weather History for KTAN - March, 2013

Change the Weather History Date:

Sunday, March 10, 2013

  Actual Average Record
Temperature  
Mean Temperature 34 °F -  
Max Temperature 44 °F 44 °F 69 °F (2016)
Min Temperature 25 °F 24 °F 2 °F (1984)
Degree Days  
Heating Degree Days 30    
Moisture  
Dew Point 27 °F    
Average Humidity 77    
Maximum Humidity 88    
Minimum Humidity 55    
Precipitation  
Precipitation 0.00 in - - ()
Sea Level Pressure  
Sea Level Pressure 30.35 in    
Wind  
Wind Speed 2 mph (NE)    
Max Wind Speed 7 mph    
Max Gust Speed -    
Visibility 8 miles    
Events      
Averages and records for this station are not official NWS values.
T = Trace of Precipitation, MM = Missing Value Source: NWS Daily Summary

Daily Weather History Graph

Daily Weather History Graph

Search for Another Location

Airport or City:

Trip Planner

Search our weather history database for the weather conditions in past years. The results will help you decide how hot, cold, wet, or windy it might be!

Date:

Astronomy

Mar. 10, 2013 Rise Set
Actual Time 7:03 AM EDT 6:45 PM EDT
Civil Twilight 6:36 AM EDT 7:12 PM EDT
Nautical Twilight 6:03 AM EDT 7:45 PM EDT
Astronomical Twilight 5:31 AM EDT 8:17 PM EDT
Moon 6:02 AM EDT (3/10) 5:49 PM EDT (3/10)
Length of Visible Light 12h 36m
Length of Day
11h 41m
Waning Crescent, 2% of the Moon is Illuminated
Mar 10
Waning Crescent
Mar 11
New
Mar 19
First Quarter
Mar 27
Full
Apr 3
Last Quarter

Hourly Weather History & Observations

Time (EDT) Temp. Windchill Dew Point Humidity Pressure Visibility Wind Dir Wind Speed Gust Speed Precip Events Conditions
12:12 AM 26.1 °F - 21.9 °F 84% 30.33 in 2.0 mi Calm Calm - N/A   Clear
12:21 AM 25.0 °F - 19.9 °F 81% 30.33 in 4.0 mi Calm Calm - N/A   Haze
12:52 AM 25.0 °F - 19.9 °F 81% 30.34 in 4.0 mi Calm Calm - N/A   Haze
12:56 AM 25.0 °F - 21.0 °F 85% 30.34 in 1.5 mi Calm Calm - N/A   Clear
1:02 AM 25.0 °F 20.7 °F 21.0 °F 85% 30.34 in 0.8 mi WNW 3.5 mph - N/A   Clear
1:07 AM 25.0 °F 20.7 °F 19.9 °F 81% 30.34 in 1.5 mi WNW 3.5 mph - N/A   Haze
1:11 AM 25.0 °F 20.7 °F 19.9 °F 81% 30.34 in 4.0 mi WNW 3.5 mph - N/A   Haze
1:52 AM 28.0 °F - 25.0 °F 88% 30.34 in 5.0 mi Calm Calm - N/A   Scattered Clouds
3:07 AM 28.0 °F - 23.0 °F 81% 30.34 in 2.5 mi Calm Calm - N/A   Haze
3:19 AM 28.0 °F - 24.1 °F 85% 30.34 in 5.0 mi Calm Calm - N/A   Mostly Cloudy
3:52 AM 30.0 °F 26.5 °F 27.0 °F 88% 30.34 in 6.0 mi WNW 3.5 mph - N/A   Overcast
4:52 AM 30.9 °F 27.5 °F 27.0 °F 85% 30.35 in 8.0 mi NNW 3.5 mph - N/A   Overcast
5:52 AM 32.0 °F 28.7 °F 27.0 °F 82% 30.35 in 8.0 mi NNW 3.5 mph - N/A   Overcast
6:52 AM 32.0 °F 28.7 °F 28.0 °F 85% 30.36 in 8.0 mi North 3.5 mph - N/A   Overcast
7:52 AM 33.1 °F - 28.9 °F 85% 30.37 in 7.0 mi Calm Calm - N/A   Overcast
8:52 AM 34.0 °F 31.0 °F 30.0 °F 85% 30.38 in 8.0 mi NNW 3.5 mph - N/A   Overcast
9:52 AM 37.9 °F - 30.9 °F 76% 30.39 in 10.0 mi Calm Calm - N/A   Overcast
10:52 AM 39.0 °F 34.8 °F 28.9 °F 67% 30.40 in 10.0 mi ENE 5.8 mph - N/A   Overcast
11:52 AM 39.9 °F 35.8 °F 28.0 °F 63% 30.39 in 10.0 mi Variable 5.8 mph - N/A   Overcast
12:52 PM 42.1 °F 37.7 °F 28.0 °F 58% 30.38 in 10.0 mi ENE 6.9 mph - N/A   Scattered Clouds
1:52 PM 44.1 °F 40.8 °F 28.9 °F 55% 30.36 in 10.0 mi East 5.8 mph - N/A   Partly Cloudy
2:52 PM 42.1 °F 37.7 °F 28.9 °F 60% 30.36 in 10.0 mi SE 6.9 mph - N/A   Clear
3:52 PM 42.1 °F 37.7 °F 28.9 °F 60% 30.35 in 10.0 mi SE 6.9 mph - N/A   Clear
4:52 PM 43.0 °F 41.3 °F 28.0 °F 56% 30.34 in 10.0 mi Variable 3.5 mph - N/A   Clear
5:52 PM 43.0 °F 39.5 °F 28.0 °F 56% 30.33 in 10.0 mi ESE 5.8 mph - N/A   Clear
6:52 PM 39.9 °F 36.7 °F 28.9 °F 65% 30.35 in 10.0 mi East 4.6 mph - N/A   Clear
7:52 PM 35.1 °F 32.2 °F 28.0 °F 76% 30.35 in 10.0 mi SE 3.5 mph - N/A   Clear
8:52 PM 36.0 °F 33.3 °F 28.9 °F 76% 30.36 in 10.0 mi SSE 3.5 mph - N/A   Clear
9:52 PM 33.1 °F - 28.9 °F 85% 30.35 in 10.0 mi Calm Calm - N/A   Mostly Cloudy
10:29 PM 34.0 °F - 28.9 °F 82% 30.34 in 10.0 mi Calm Calm - N/A   Scattered Clouds
10:52 PM 33.1 °F - 28.9 °F 85% 30.34 in 10.0 mi Calm Calm - N/A   Partly Cloudy
11:06 PM 33.1 °F - 28.9 °F 85% 30.34 in 9.0 mi Calm Calm - N/A   Mostly Cloudy
11:34 PM 34.0 °F 31.0 °F 30.0 °F 85% 30.34 in 10.0 mi South 3.5 mph - N/A   Scattered Clouds
11:52 PM 35.1 °F - 30.0 °F 82% 30.34 in 10.0 mi Calm Calm - N/A   Clear
12:16 AM 35.1 °F - 30.0 °F 82% 30.32 in 10.0 mi Calm Calm - N/A   Mostly Cloudy
12:52 AM 36.0 °F - 30.0 °F 79% 30.33 in 10.0 mi Calm Calm - N/A   Overcast